カタログに戻る

STARLINK-34875

運用中通信VLEO
NORAD 65689·PAYLOAD·🇺🇸 United States

打ち上げ Sep 21, 2025 から Cape Canaveral Space Force Station

Loading…

次のパス (今後24時間)

TLE

最新Source: CelesTrak SupGP

元期: Sep 14, 2026, 22:36 UTC

1 65689C 25212P   26257.94215278 -.00036066  00000+0 -10653-2 0  2572
2 65689  53.1584 183.8021 0001404  88.4455  93.2041 15.34415841    14

AllMySatでSTARLINK-34875をリアルタイム追跡

Download on the App Store